• Join FlightAware (Why Join?)
  • Login
  • US Flag 
04:04AM EDT


 

Airport Tracker/Info


-or-


 

Live Flight TrackerFlight Track Log ✈ EJM918 ✈ 30-Jul-2013 ✈ KBDL - KHPN

Flight Track Log - Related Links

Times and Time Zones

All times are in EDT time to prevent confusion due to time zone crossing. See the EJM918 flight status page for this flight to view local times or setup timezone preferences in your user account.

Time Position Orientation Groundspeed Altitude Reporting Facility
EDT Latitude Longitude Course Direction KTS MPH feet Rate Location/Type
03:50PM 41.9417 -72.6997 266° West 157 181 800  Level Boston Center
03:51PM 41.9831 -72.7725 307° West 219 252 3,300 1,800 Climbing Boston Center
03:52PM 41.9789 -72.8058 260° West 251 289 4,200 2,100 Climbing Boston Center
03:53PM 41.9658 -72.9008 260° West 263 303 6,500 2,400 Climbing Boston Center
03:54PM 41.9531 -72.9956 260° West 269 310 9,000 1,740 Climbing Boston Center
03:55PM 41.9378 -73.1156 260° West 285 328 9,900 420 Climbing Boston Center
03:56PM 41.9148 -73.0034 266° West  Level FlightAware Approximate
03:56PM 41.9203 -73.2353 259° West 328 377 9,900  Level Boston Center
04:01PM 41.6000 -73.6880 259° West 278 320 7,800 -540 Descending FlightAware
04:01PM 41.5770 -73.7140 220° Southwest 277 319 7,200 -1,440 Descending FlightAware
04:02PM 41.5600 -73.7350 223° Southwest 272 313 6,800 -1,320 Descending FlightAware
04:02PM 41.5340 -73.7650 221° Southwest 272 313 6,200 -1,200 Descending FlightAware
04:02PM 41.5230 -73.7780 222° Southwest 273 314 6,000 -840 Descending FlightAware
04:03PM 41.5050 -73.7990 221° Southwest 273 314 5,800 -240 Descending FlightAware
04:03PM 41.4790 -73.8300 222° Southwest 272 313 5,800 -120 Level FlightAware
04:04PM 41.4520 -73.8530 213° Southwest 274 315 5,700 -120 Descending FlightAware
04:04PM 41.4240 -73.8670 201° Southwest 274 315 5,700 -1,380 Level FlightAware
04:04PM 41.4050 -73.8190 118° Southeast 282 325 4,700 -2,400 Descending FlightAware
04:05PM 41.3860 -73.7870 128° Southeast 277 319 4,100 -720 Descending FlightAware
04:05PM 41.3680 -73.7560 128° Southeast 277 319 4,100 -840 Level FlightAware
04:06PM 41.3167 -73.6667 128° Southeast 271 312 3,000 -600 Descending New York TRACON
04:07PM 41.2667 -73.6000 135° Southeast 238 274 3,000  Level New York TRACON
04:08PM 41.2167 -73.5833 166° South 218 251 3,000  Level New York TRACON
04:09PM 41.1500 -73.5667 169° South 218 251 3,000  Level New York TRACON
04:10PM 41.1000 -73.5667 180° South 194 223 3,000  Level New York TRACON
04:11PM 41.0500 -73.5500 166° South 192 221 3,000  Level New York TRACON
04:12PM 41.0000 -73.5500 180° South 173 199 3,000 -60 Level New York TRACON
04:13PM 40.9667 -73.6000 229° Southwest 158 182 2,900 -480 Descending New York TRACON
04:14PM 40.9833 -73.6500 294° West 155 178 2,100 -840 Descending New York TRACON
04:15PM 41.0167 -73.6667 339° North 120 138 1,300 -720 Descending New York TRACON
04:16PM 41.0500 -73.7000 323° Northwest 116 133 700 -600 Descending New York TRACON
04:18PM 41.0667 -73.7000 278° West  Level FlightAware Approximate
04:25PM 41.0669 -73.7076 278° West  Level Estimated
04:26PM 41.0667 -73.7000 278° West  Level FlightAware Approximate